Columbia County, Pennsylvania, United States
Lat: 41.04N, Lon: 76.43W
Wx Zone: PAZ053
Local Info
Past Weather Observations for Tuesday, October 21, 2014

NOTE: This archive is for the closest National Weather Service station to Columbia County. Information may differ from the station used for current weather conditions.

Click here for Long-term Archive

Time Weather Temperature Dewpoint Humidity Pressure Winds Precip Visibility
23:53
Overcast
54°F / 12°C 48°F / 9°C 82% 29.95 in
(1014 mb)
N 6.9 mph
(N 11 kph)
- 10SM
22:53
Overcast
50°F / 10°C 46°F / 8°C 88% 29.95 in
(1014 mb)
Calm - 10SM
21:53
Mostly Cloudy
52°F / 11°C 46°F / 8°C 82% 29.95 in
(1014 mb)
Calm - 10SM
20:53
Partly Cloudy
52°F / 11°C 46°F / 8°C 82% 29.95 in
(1014 mb)
Calm - 10SM
19:53
Mostly Cloudy
54°F / 12°C 46°F / 8°C 77% 29.92 in
(1013 mb)
NNW 4.6 mph
(NNW 7 kph)
- 10SM
18:53
Overcast
55°F / 13°C 48°F / 9°C 77% 29.92 in
(1013 mb)
N 3.5 mph
(N 6 kph)
- 10SM
17:53
Overcast
55°F / 13°C 48°F / 9°C 77% 29.89 in
(1012 mb)
Calm - 10SM
16:53
Overcast
59°F / 15°C 46°F / 8°C 63% 29.86 in
(1011 mb)
NE 3.5 mph
(NE 6 kph)
- 10SM
15:53
Overcast
63°F / 17°C 46°F / 8°C 56% 29.83 in
(1010 mb)
NE 4.6 mph
(NE 7 kph)
- 10SM
14:53
Mostly Cloudy
63°F / 17°C 46°F / 8°C 56% 29.83 in
(1010 mb)
NNE 6.9 mph
(NNE 11 kph)
- 10SM
13:53
Overcast
61°F / 16°C 46°F / 8°C 59% 29.83 in
(1010 mb)
NW 4.6 mph
(NW 7 kph)
- 10SM
13:10
Overcast
59°F / 15°C 48°F / 9°C 68% 29.83 in
(1010 mb)
Calm - 10SM
12:53
Overcast
59°F / 15°C 48°F / 9°C 68% 29.86 in
(1011 mb)
Calm - 10SM
12:44
Overcast
59°F / 15°C 48°F / 9°C 68% 29.86 in
(1011 mb)
E 3.5 mph
(E 6 kph)
- 10SM
11:53
Overcast
57°F / 14°C 48°F / 9°C 72% 29.86 in
(1011 mb)
Calm - 10SM
10:53
Overcast
55°F / 13°C 48°F / 9°C 77% 29.89 in
(1012 mb)
Calm - 10SM
09:53
Overcast
55°F / 13°C 48°F / 9°C 77% 29.89 in
(1012 mb)
Calm - 9SM
08:53
Overcast
54°F / 12°C 48°F / 9°C 82% 29.89 in
(1012 mb)
S 5.8 mph
(S 9 kph)
- 8SM
07:53
Overcast
52°F / 11°C 48°F / 9°C 88% 29.89 in
(1012 mb)
Calm - 9SM
06:53
Partly Cloudy
46°F / 8°C 45°F / 7°C 93% 29.86 in
(1011 mb)
Calm - 7SM
05:53
Mostly Cloudy
48°F / 9°C 46°F / 8°C 94% 29.86 in
(1011 mb)
Calm - 10SM
04:53
Overcast
50°F / 10°C 46°F / 8°C 88% 29.86 in
(1011 mb)
Calm - 10SM
03:53
Overcast
52°F / 11°C 46°F / 8°C 82% 29.86 in
(1011 mb)
Calm - 10SM
02:53
Overcast
52°F / 11°C 46°F / 8°C 82% 29.86 in
(1011 mb)
Calm - 10SM
01:53
Overcast
52°F / 11°C 45°F / 7°C 77% 29.89 in
(1012 mb)
Calm - 10SM
00:53
Overcast
52°F / 11°C 45°F / 7°C 77% 29.89 in
(1012 mb)
Calm 0.00 in
(0.00 mm)
10SM
Time Weather Temperature Dewpoint Humidity Pressure Winds Precip Visibility


Weather for websites

WeatherForYou.com, LLC is not responsible for any damages or problems caused by this service. Current weather conditions are obtained from the closest station including government and personal stations which may have varying degrees of accuracy. Weather forecasts are derived from the NOAA NDFD. Like all things, this site belongs to Jesus Christ... He just trusts me to maintain it. If you have any questions or comments email webmaster@weatherforyou.com

Copyright © 2014, WeatherForYou.com LLC. All rights reserved.